STARLINK-37608, 69037

Orbit data source: Space-Track

STARLINK-37608, 69037 is a payload satellite owned by SpaceX/Seattle (US) in SSO that was launched on Wed, 06 May 2026 UTC via an FALCON 9 launch vehicle from the Air Force Western Test Range (AFWTR). Payload-class satellites include a variety of spacecraft equipped with specific instruments for various scientific and technological missions. These include communications satellites like Starlink; space stations such as the ISS; scientific satellites like the Hubble; Earth observation satellites from companies like Planet Labs, Umbra, and HawkEye 360; GPS; miniature CubeSats for education and research; and military/defense satellites.

Loading next visibility...
Identifier
69037, 2026-101N
Orbit
SSO
Country
Flag of USUS
Related business
Manufacturer
SpaceX/Seattle
Mission
Operational spacecraft
Bus & Motor
STARLINK V2MO, Unknown motor
Mass
575 kg wet, ~530 kg dry
Launch date (UTC)
2026-05-06 (1 month ago)
Launch vehicle
FALCON 9
Launch site
Air Force Western Test Range (AFWTR)
Object type
Payload
Rocket body
Debris
Shape & HBR
Unknown shape, 14.5 m
Radar Cross Section
Large (>1 m²)

Expand to show TLE details & history
Last TLE update: 14 hours ago

TLE from 14 hours ago
0 STARLINK-37608
1 69037U 26101N   26168.50088510  .00009145  00000-0  28526-3 0  9990
2 69037  97.2829  23.3877 0002112  93.4176 266.7308 15.33442782  6625
Epoch: 2026-06-17T12:01Z
TLE epoch observation values (Epoch: 2026-06-17T12:01:16.472Z)
Latitude
-0.00007°
Longitude
-62.68859°
Altitude
468.745 km
Speed
7.632 km/s
True Right ascension
01h 33m 33s
True Declination
0° 00' 00"
Sunlit
Object was in daylight at epoch
Visualization orbit readout
Latitude
Unknown
Longitude
Unknown
Altitude
Unknown
Speed
Unknown
Apparent Right ascension
Unknown
Apparent Declination
Unknown
Sunlit
N/A
Visualization observer readout
Local Sidereal Time
12:21:03
Azimuth
Unknown
Elevation
Unknown
Doppler factor
Unknown
Orbital elements
Apogee altitude
463.937 km
Perigee altitude
461.048 km
Semi-major axis
6,840.629 km
Eccentricity
0.00021
Inclination
97.2829°
RAAN
23.3877°
Arg. of periapsis
93.4176°
True anomaly
266.70664°
Mean anomaly
266.7308°
Eccentric anomaly
266.71872°
Mean motion
3.83618 °/min
Orbital period
93.84 mins
BSTAR
0.00028526
Loading maneuver chart data...
Computing Atmospheric mass density...
Loading historical data...
Loading historical data...
Loading historical data...
Loading historical data...
Loading historical data...
Loading historical data...
Loading historical data...

Documentation

Showing up to 5 results
|